Date,TemperatureHighF,TemperatureAvgF,TemperatureLowF,DewpointHighF,DewpointAvgF,DewpointLowF,HumidityHigh,HumidityAvg,HumidityLow,PressureMaxIn,PressureMinIn,WindSpeedMaxMPH,WindSpeedAvgMPH,GustSpeedMaxMPH,PrecipitationSumIn
2012-1-1,64,53,45,47,42,36,89,67,51,30.16,30.05,7,1,9,0.00
2012-1-2,61,52,47,50,47,44,93,84,63,30.25,30.13,12,1,20,0.00
2012-1-3,63,52,47,52,46,41,96,81,50,30.30,30.18,7,0,9,0.00
2012-1-4,68,55,45,46,42,37,95,64,34,30.29,30.18,8,1,10,0.00
2012-1-5,67,53,45,51,46,38,94,79,52,30.27,30.11,10,1,16,0.00
2012-1-6,60,50,43,50,45,40,99,85,61,30.17,30.06,10,1,15,0.00
2012-1-7,68,55,42,47,28,8,98,48,10,30.18,30.04,10,1,19,0.00
2012-1-8,68,57,49,28,18,7,38,23,9,30.18,30.08,7,1,11,0.00
2012-1-9,68,53,43,41,36,27,80,54,31,30.22,30.07,5,0,8,0.00
2012-1-10,66,53,43,43,38,32,83,59,29,30.15,30.01,6,0,8,0.00
2012-1-11,68,56,43,44,35,29,86,49,23,30.12,29.97,5,0,8,0.00
2012-1-12,67,54,42,45,30,19,86,46,16,30.11,29.97,7,0,11,0.00
2012-1-13,69,54,43,41,33,27,79,48,22,30.17,30.05,7,0,9,0.00
2012-1-14,66,52,40,44,37,29,90,59,26,30.17,30.02,7,0,10,0.00
2012-1-15,52,47,40,45,38,26,92,72,53,30.18,30.03,19,3,31,0.00
2012-1-16,54,44,36,33,26,15,68,52,23,30.29,30.17,7,1,12,0.00
2012-1-17,55,44,37,40,35,29,91,70,46,30.36,30.26,10,1,13,0.00
2012-1-18,55,46,39,44,39,35,98,79,54,30.35,30.23,7,0,10,0.00
2012-1-19,50,47,42,48,44,40,97,89,70,30.23,30.04,6,1,13,0.29
2012-1-20,57,53,49,55,51,47,96,93,88,30.04,29.74,20,3,34,1.62
2012-1-21,55,50,45,52,44,40,96,80,65,30.15,29.78,19,4,27,0.20
2012-1-22,53,48,44,50,44,38,93,86,73,30.15,29.84,10,2,20,0.23
2012-1-23,58,52,45,53,48,42,96,88,68,30.15,29.72,25,5,28,0.59
2012-1-24,62,51,45,51,45,41,98,80,56,30.35,30.15,8,0,11,0.00
2012-1-25,67,56,50,52,48,44,89,76,52,30.35,30.22,9,1,12,0.00
2012-1-26,58,54,49,53,51,48,95,89,76,30.27,30.17,12,2,18,0.00
2012-1-27,69,55,46,52,38,7,100,64,9,30.23,30.11,8,0,10,0.00
2012-1-28,67,54,43,39,28,10,80,43,11,30.27,30.14,8,1,12,0.00
2012-1-29,65,54,43,46,42,37,86,65,41,30.23,30.08,10,0,10,0.00
2012-1-30,61,52,48,48,45,38,95,79,58,30.11,30.01,11,2,17,0.00
2012-1-31,58,49,43,47,45,40,95,85,65,30.19,30.07,12,2,21,0.00
2012-2-1,60,52,45,51,47,42,95,82,63,30.22,30.16,12,1,16,0.05
2012-2-2,71,55,46,48,39,25,93,63,18,30.21,29.91,6,0,9,0.00
2012-2-3,64,53,46,46,40,25,89,64,28,30.06,29.95,9,1,13,0.00
2012-2-4,68,54,43,47,36,25,92,57,25,30.09,29.98,5,0,10,0.00
2012-2-5,67,55,46,42,35,27,80,49,23,30.10,29.94,7,0,10,0.00
2012-2-6,68,55,49,46,38,26,82,54,24,29.99,29.79,7,0,9,0.10
2012-2-7,58,54,51,48,46,42,88,76,62,30.09,29.78,10,2,17,0.13
2012-2-8,66,55,47,52,48,45,97,77,52,30.19,30.09,7,0,10,0.00
2012-2-9,70,57,47,51,46,39,94,69,41,30.21,30.08,15,1,16,0.00
2012-2-10,61,53,48,55,47,37,94,80,61,30.16,30.07,13,3,17,0.10
2012-2-11,59,52,47,50,47,44,94,86,70,30.07,29.99,14,3,20,0.03
2012-2-12,58,50,44,49,45,42,96,85,66,30.07,30.00,15,3,21,0.06
2012-2-13,53,47,44,48,42,38,94,84,68,30.03,29.93,16,4,23,0.29
2012-2-14,58,49,42,47,42,38,94,79,52,30.09,30.02,19,3,21,0.01
2012-2-15,61,51,41,48,30,15,93,49,19,30.13,30.03,13,2,22,0.11
2012-2-16,66,53,46,46,30,17,91,47,16,30.20,30.12,13,1,14,0.00
2012-2-17,64,51,45,51,48,44,97,87,61,30.21,30.13,13,3,19,0.00
2012-2-18,60,51,44,49,43,36,96,76,56,30.17,30.08,13,3,22,0.00
2012-2-19,55,47,40,42,38,31,85,71,42,30.15,30.05,15,2,19,0.00
2012-2-20,62,51,46,49,45,40,93,79,57,30.19,30.07,5,0,9,0.05
2012-2-21,67,54,46,51,48,44,96,80,51,30.25,30.14,6,0,10,0.00
2012-2-22,76,59,50,56,46,36,92,67,24,30.21,30.05,14,1,18,0.00
2012-2-23,75,60,47,51,36,13,88,48,14,30.08,29.90,10,1,13,0.00
2012-2-24,74,59,49,48,29,10,83,39,10,30.17,29.95,15,3,25,0.00
2012-2-25,60,51,45,43,34,26,80,55,29,30.28,30.16,13,2,16,0.00
2012-2-26,59,47,39,39,34,19,85,63,23,30.18,29.91,17,3,24,0.00
2012-2-27,55,46,38,39,36,30,91,69,47,30.00,29.84,12,2,19,0.00
2012-2-28,56,48,41,44,36,30,88,64,38,30.20,30.00,15,4,23,0.00
2012-2-29,56,50,46,49,45,40,97,83,67,30.22,30.03,21,4,26,0.38
2012-3-1,56,48,42,50,44,38,95,85,72,30.23,30.15,16,3,24,0.26
2012-3-2,67,52,41,42,30,18,86,47,15,30.28,30.19,9,1,11,0.00
2012-3-3,72,56,44,46,37,25,89,53,19,30.29,30.14,10,1,12,0.00
2012-3-4,74,58,46,46,40,34,85,55,26,30.19,29.98,7,1,11,0.00
2012-3-5,57,48,42,48,44,39,97,85,68,30.09,30.01,21,5,28,0.03
2012-3-6,55,49,44,48,34,18,97,60,33,30.07,29.97,15,5,25,0.03
2012-3-7,64,51,43,36,20,2,68,33,10,30.17,30.06,10,2,20,0.00
2012-3-8,72,55,42,45,34,16,88,52,13,30.28,30.14,8,1,15,0.00
2012-3-9,76,54,43,46,38,24,93,63,16,30.30,30.09,10,1,18,0.00
2012-3-10,57,49,45,48,44,41,93,83,68,30.14,30.01,15,3,18,0.00
2012-3-11,58,50,46,49,44,42,91,80,61,30.07,30.01,13,3,18,0.00
2012-3-12,61,52,42,47,43,35,98,74,41,30.06,29.93,16,2,21,0.00
2012-3-13,54,53,51,51,49,46,90,87,76,29.98,29.91,16,4,25,0.37
2012-3-14,56,55,53,53,52,50,94,91,88,30.08,29.96,11,3,19,1.49
2012-3-15,58,55,53,55,53,50,94,92,85,30.11,30.04,13,3,16,0.14
2012-3-16,57,54,48,55,51,44,96,91,82,30.05,29.79,18,5,27,1.24
2012-3-17,52,47,42,46,41,36,97,82,62,29.81,29.63,16,3,25,0.00
2012-3-18,53,47,43,39,36,31,81,65,44,29.99,29.74,22,6,30,0.00
2012-3-19,61,49,40,37,32,22,73,53,23,30.09,29.98,9,2,17,0.00
2012-3-20,64,55,49,47,40,28,81,57,39,30.15,30.07,9,1,13,0.00
2012-3-21,69,55,47,52,48,43,95,79,49,30.15,29.97,13,2,15,0.00
2012-3-22,57,51,45,51,44,36,96,78,48,30.04,29.95,15,4,25,0.02
2012-3-23,61,51,39,42,37,28,94,62,35,30.09,29.90,14,2,19,0.00
2012-3-24,52,46,42,46,41,27,99,86,39,29.95,29.87,12,1,19,1.27
2012-3-25,59,49,43,47,44,40,100,82,56,29.93,29.82,12,2,15,0.22
2012-3-26,61,51,42,44,40,33,91,69,39,30.07,29.93,12,3,19,0.00
2012-3-27,58,53,51,52,47,39,92,78,63,30.02,29.89,19,4,29,0.53
2012-3-28,64,56,50,53,51,48,96,85,65,30.11,29.95,13,4,17,0.00
2012-3-29,65,54,48,53,49,47,96,86,57,30.11,30.03,10,3,15,0.00
2012-3-30,67,57,53,53,51,48,92,79,59,30.09,29.90,13,3,18,0.00
2012-3-31,59,54,47,51,47,41,95,76,60,30.04,29.75,20,6,29,0.66
2012-4-1,58,51,45,44,39,34,85,65,44,30.24,30.04,16,4,24,0.00
2012-4-2,66,53,44,47,41,30,86,67,27,30.22,30.04,15,2,19,0.00
2012-4-3,64,53,48,50,46,43,93,77,48,30.10,30.00,14,4,23,0.09
2012-4-4,57,50,44,43,39,33,85,68,44,30.17,30.10,19,4,25,0.00
2012-4-5,54,48,40,40,35,31,79,63,44,30.17,30.09,17,4,23,0.00
2012-4-6,61,50,40,41,36,28,85,61,28,30.24,30.14,10,2,16,0.00
2012-4-7,69,54,41,44,36,25,89,55,20,30.16,30.00,12,2,16,0.00
2012-4-8,69,52,41,46,40,30,86,68,30,30.08,29.97,17,3,23,0.00
2012-4-9,72,55,45,48,42,20,95,66,15,30.02,29.80,22,2,25,0.00
2012-4-10,56,53,51,52,48,42,94,85,65,29.92,29.85,9,2,19,0.63
2012-4-11,61,55,49,50,48,45,95,79,58,29.99,29.85,20,5,28,0.21
2012-4-12,63,53,47,49,44,32,94,74,36,30.02,29.85,17,5,28,1.28
2012-4-13,56,50,45,49,44,40,95,79,60,29.91,29.78,20,4,26,0.35
2012-4-14,63,53,45,48,42,37,91,70,44,30.11,29.91,16,4,20,0.00
2012-4-15,60,52,49,48,46,45,93,82,64,30.18,30.11,16,4,23,0.00
2012-4-16,61,53,48,49,47,44,91,79,60,30.19,30.13,16,4,20,0.00
2012-4-17,61,54,50,52,50,46,93,85,67,30.16,30.06,14,3,17,0.00
2012-4-18,63,56,49,52,48,44,89,77,57,30.13,30.06,19,5,25,0.00
2012-4-19,68,59,53,56,53,50,93,80,64,30.12,30.01,13,3,20,0.00
2012-4-20,82,66,54,59,50,44,90,62,31,30.06,29.90,11,2,15,0.00
2012-4-21,86,70,55,52,48,44,75,50,24,29.97,29.77,7,1,12,0.00
2012-4-22,61,56,52,52,50,47,94,81,68,29.93,29.87,25,6,37,0.09
2012-4-23,68,58,53,52,50,48,92,76,54,29.99,29.89,17,6,21,0.00
2012-4-24,70,60,57,54,51,49,79,71,51,30.01,29.93,17,4,22,0.00
2012-4-25,72,61,55,55,52,49,91,74,49,29.99,29.78,13,2,20,0.22
2012-4-26,60,55,50,54,48,43,95,77,55,30.17,29.81,16,5,26,0.16
2012-4-27,66,55,47,48,43,37,82,65,41,30.19,30.10,13,2,21,0.00
2012-4-28,67,58,50,52,47,42,86,69,47,30.12,29.89,16,3,22,0.00
2012-4-29,66,54,49,55,49,46,92,84,64,29.93,29.89,7,1,10,0.00
2012-4-30,68,58,49,55,50,46,96,75,48,29.98,29.91,17,6,29,0.00
2012-5-1,60,52,46,51,45,42,97,78,58,29.96,29.89,19,4,29,0.00
2012-5-2,57,51,45,47,44,42,92,78,61,29.99,29.93,19,5,33,0.00
2012-5-3,65,55,49,55,50,44,95,82,65,30.07,29.97,17,5,23,0.02
2012-5-4,61,54,48,52,46,42,96,74,53,30.18,30.07,17,4,28,0.00
2012-5-5,70,58,47,50,42,30,85,59,23,30.18,30.01,13,2,19,0.00
2012-5-6,78,64,50,49,38,24,81,46,14,30.05,29.92,13,2,20,0.00
2012-5-7,83,64,50,52,43,27,90,55,14,30.02,29.89,14,2,20,0.00
2012-5-8,77,60,47,55,47,38,97,70,26,29.99,29.86,12,3,20,0.00
2012-5-9,56,51,49,50,47,45,92,86,76,29.98,29.93,14,4,19,0.00
2012-5-10,78,59,46,52,43,30,94,61,21,29.95,29.82,15,2,20,0.00
2012-5-11,78,60,47,52,46,40,89,64,30,30.00,29.86,14,2,23,0.00
2012-5-12,66,54,47,52,48,44,97,82,49,30.05,29.97,16,4,24,0.00
2012-5-13,62,54,49,50,48,46,98,81,63,30.06,30.00,20,7,26,0.00
2012-5-14,66,58,51,52,49,45,89,74,52,30.06,29.99,15,3,18,0.00
2012-5-15,60,53,49,51,49,47,95,85,70,30.06,29.98,19,5,30,0.00
2012-5-16,59,52,49,52,49,47,97,90,75,30.04,29.95,19,4,25,0.00
2012-5-17,59,52,49,50,48,45,97,84,70,29.98,29.88,27,7,32,0.00
2012-5-18,66,54,46,49,46,42,92,75,45,29.98,29.91,22,4,29,0.00
2012-5-19,64,55,47,49,46,42,94,73,46,29.99,29.92,15,4,23,0.00
2012-5-20,71,57,49,52,47,42,93,71,37,30.01,29.90,17,5,25,0.00
2012-5-21,62,54,50,54,52,49,99,91,74,30.07,29.99,21,6,25,0.00
2012-5-22,62,56,51,55,51,47,99,82,60,30.09,30.02,19,6,29,0.00
2012-5-23,66,58,51,52,47,43,85,68,46,30.03,29.92,16,4,23,0.00
2012-5-24,64,56,49,50,46,41,83,69,57,29.94,29.78,29,5,29,0.00
2012-5-25,61,53,48,49,45,42,87,74,56,29.87,29.79,20,5,22,0.00
2012-5-26,61,53,47,52,47,44,96,82,65,30.07,29.87,27,4,27,0.00
2012-5-27,59,53,50,50,48,46,93,82,68,30.13,30.05,19,4,26,0.00
2012-5-28,60,54,49,51,49,45,96,83,67,30.07,30.00,22,5,27,0.00
2012-5-29,62,54,49,51,48,46,91,81,60,30.06,29.99,20,5,25,0.00
2012-5-30,64,54,49,52,49,46,95,82,63,30.09,29.98,19,5,28,0.00
2012-5-31,77,61,50,59,36,-47,99,51,1,30.05,29.83,12,4,20,0.00
2012-6-1,65,56,51,46,33,-47,70,50,1,29.89,29.78,23,6,31,0.00
2012-6-2,60,53,50,44,33,-46,71,54,1,29.97,29.85,20,8,28,0.00
2012-6-3,65,56,49,45,33,-47,71,52,1,29.97,29.88,17,5,25,0.00
2012-6-4,59,55,50,46,35,-45,70,54,1,30.10,29.91,16,5,22,0.13
2012-6-5,62,55,49,59,34,-48,100,54,1,30.14,30.08,15,5,22,0.00
2012-6-6,65,56,46,44,33,-46,73,51,1,30.10,29.95,17,3,24,0.00
2012-6-7,64,56,48,44,33,-47,71,51,1,30.01,29.95,21,5,28,0.11
2012-6-8,65,57,49,46,33,-45,76,51,1,29.98,29.91,20,4,29,0.00
2012-6-9,75,62,47,57,37,-49,75,50,1,30.00,29.83,12,2,19,0.00
2012-6-10,83,72,57,61,46,-37,68,48,1,29.89,29.79,16,2,19,0.00
2012-6-11,84,65,51,61,38,-40,70,46,1,29.97,29.84,16,3,25,0.00
2012-6-12,76,59,50,56,34,-47,71,50,1,29.97,29.87,20,5,30,0.00
2012-6-13,64,54,49,43,31,-47,71,51,1,29.93,29.79,23,6,29,0.07
2012-6-14,63,55,49,44,32,-47,72,51,1,29.85,29.77,25,6,25,0.02
2012-6-15,68,58,47,50,35,-45,71,51,1,29.86,29.77,16,3,20,0.00
2012-6-16,92,71,53,67,44,-44,70,47,1,29.86,29.67,13,2,16,0.00
2012-6-17,74,59,53,52,37,-44,72,52,1,29.91,29.79,21,4,25,0.00
2012-6-18,59,54,50,44,31,-47,70,51,1,29.94,29.86,19,8,31,0.02
2012-6-19,72,59,50,50,34,-47,71,50,1,29.90,29.83,15,5,23,0.00
2012-6-20,82,61,52,63,36,-45,93,50,1,29.87,29.76,19,3,26,0.00
2012-6-21,60,54,50,43,34,-46,70,55,1,29.98,29.85,17,5,26,0.00
2012-6-22,66,56,51,45,33,-45,70,52,1,29.97,29.89,13,4,17,0.01
2012-6-23,64,57,50,45,33,-47,70,50,1,29.96,29.88,16,4,23,0.00
2012-6-24,65,57,50,46,34,-45,71,50,1,30.02,29.95,16,4,22,0.00
2012-6-25,66,59,51,47,35,-42,71,50,1,30.05,29.99,16,4,22,0.00
2012-6-26,68,60,50,50,37,-45,76,50,1,30.05,29.88,13,3,21,0.00
2012-6-27,66,59,49,47,34,-45,72,49,1,29.96,29.87,21,5,28,0.02
2012-6-28,67,58,53,46,35,-45,70,51,1,30.06,29.96,22,5,28,0.00
2012-6-29,66,59,54,47,35,-44,69,49,1,30.07,29.99,14,5,23,0.00
2012-6-30,68,61,56,49,37,-43,69,51,1,30.01,29.91,15,4,22,0.02
2012-7-1,66,59,56,48,37,-42,70,52,1,29.96,29.88,13,4,23,0.00
2012-7-2,62,57,53,46,35,-45,70,52,1,29.92,29.85,18,6,34,0.03
2012-7-3,66,57,51,46,34,-45,70,50,1,29.92,29.81,16,5,25,0.00
2012-7-4,68,58,52,46,32,-45,70,49,1,29.91,29.83,26,8,34,0.00
2012-7-5,63,56,52,44,34,-45,70,52,1,29.99,29.91,23,6,27,0.00
2012-7-6,68,57,52,46,34,-45,70,51,1,30.01,29.92,14,4,20,0.00
2012-7-7,71,58,51,51,35,-45,71,51,1,30.00,29.89,15,4,23,0.00
2012-7-8,63,55,51,44,32,-46,70,52,1,30.03,29.96,16,4,25,0.00
2012-7-9,65,55,51,44,33,-45,70,51,1,30.05,29.93,19,3,20,0.00
2012-7-10,74,59,50,53,35,-47,71,50,1,29.99,29.80,12,4,18,0.00
2012-7-11,83,59,50,53,35,-47,71,50,1,29.90,29.73,13,4,16,0.00
2012-7-12,63,55,50,44,31,-47,71,50,1,29.89,29.82,16,6,24,0.00
2012-7-13,60,54,51,44,33,-46,70,54,1,29.94,29.88,20,4,31,0.00
2012-7-14,63,55,51,44,33,-45,70,53,1,29.97,29.88,19,6,28,0.02
2012-7-15,68,57,52,47,35,-44,71,52,1,29.94,29.83,17,5,26,0.00
2012-7-16,62,56,53,45,35,-45,71,54,1,29.93,29.86,17,7,23,0.01
2012-7-17,65,58,54,46,35,-44,70,51,1,30.00,29.91,14,4,20,0.06
2012-7-18,67,59,54,47,37,-42,70,51,1,29.99,29.93,20,4,22,0.00
2012-7-19,67,60,53,47,37,-44,71,51,1,30.02,29.95,18,4,25,0.02
2012-7-20,72,61,55,52,37,-44,70,50,1,30.06,29.93,18,5,23,0.00
2012-7-21,84,65,53,62,39,-45,71,49,1,29.99,29.84,15,3,23,0.00
2012-7-22,64,58,53,45,34,-45,71,50,1,29.93,29.85,22,6,26,0.00
2012-7-23,66,59,53,47,36,-44,70,51,1,29.94,29.88,24,8,31,0.00
2012-7-24,70,59,54,48,37,-43,70,52,1,29.96,29.90,17,6,25,0.00
2012-7-25,64,58,54,46,36,-43,71,53,1,29.98,29.93,18,7,22,0.00
2012-7-26,64,57,53,44,35,-45,70,53,1,29.99,29.93,17,6,23,0.00
2012-7-27,63,56,52,44,34,-45,71,52,1,30.01,29.96,25,6,28,0.02
2012-7-28,67,57,52,46,34,-45,71,52,1,30.03,29.96,19,5,29,0.02
2012-7-29,64,56,52,45,34,-45,71,52,1,30.04,29.94,20,4,25,0.00
2012-7-30,78,62,53,62,38,-45,80,51,1,29.99,29.84,14,4,21,0.00
2012-7-31,63,57,53,45,34,-45,72,51,1,29.99,29.92,17,5,23,0.00
2012-8-1,64,57,53,45,34,-45,71,52,1,30.04,29.95,14,5,26,0.00
2012-8-2,65,56,52,45,34,-45,71,52,1,30.00,29.90,17,5,26,0.00
2012-8-3,63,55,52,44,34,-45,71,53,1,29.93,29.83,17,6,28,0.00
2012-8-4,61,56,51,47,36,-45,71,56,1,29.98,29.88,12,3,17,0.00
2012-8-5,66,59,55,47,37,-43,70,52,1,30.06,29.96,13,3,23,0.02
2012-8-6,71,60,54,50,37,-44,70,51,1,30.08,29.98,15,3,23,0.00
2012-8-7,67,59,54,48,34,-45,71,50,1,30.04,29.94,15,4,25,0.00
2012-8-8,71,59,52,50,36,-45,72,51,1,30.01,29.88,14,5,20,0.00
2012-8-9,75,60,52,65,36,-46,79,51,1,29.96,29.82,12,4,19,0.00
2012-8-10,65,57,52,46,33,-45,72,51,1,29.88,29.78,13,5,18,0.00
2012-8-11,77,59,51,62,36,-46,85,53,1,29.87,29.74,11,4,19,0.00
2012-8-12,70,57,51,63,36,-45,92,54,1,29.89,29.78,13,4,17,0.00
2012-8-13,74,60,51,63,39,-46,100,57,1,29.89,29.76,12,3,18,0.00
2012-8-14,64,57,52,46,36,-45,74,54,1,29.86,29.80,19,4,23,0.00
2012-8-15,65,58,55,62,37,-44,100,55,1,29.91,29.83,16,4,22,0.00
2012-8-16,67,59,54,66,38,-44,100,56,1,29.97,29.86,13,3,21,0.00
2012-8-17,66,58,53,64,37,-44,99,55,1,30.00,29.90,17,2,23,0.00
2012-8-18,66,58,53,64,38,-44,97,57,1,29.97,29.89,16,4,28,0.00
2012-8-19,63,55,52,44,34,-45,71,53,1,29.99,29.89,18,4,24,0.00
2012-8-20,63,55,51,44,33,-46,72,53,1,29.97,29.87,16,4,26,0.00
2012-8-21,62,55,52,45,34,-45,72,54,1,29.95,29.85,19,4,27,0.00
2012-8-22,63,55,52,46,35,-45,72,54,1,29.96,29.89,20,4,22,0.00
2012-8-23,63,56,51,46,34,-44,71,53,1,29.95,29.87,12,4,23,0.00
2012-8-24,71,58,52,54,38,-44,91,58,1,29.92,29.84,17,6,25,0.00
2012-8-25,60,55,52,45,35,-45,72,55,1,29.91,29.83,19,5,20,0.00
2012-8-26,66,59,54,64,38,-43,100,56,1,29.98,29.88,15,5,24,0.00
2012-8-27,76,63,55,68,43,-42,94,58,1,30.01,29.91,14,2,19,0.00
2012-8-28,76,64,54,54,39,-44,91,51,1,29.99,29.88,13,2,24,0.00
2012-8-29,83,66,51,52,35,-44,75,44,1,29.95,29.76,9,1,14,0.00
2012-8-30,61,57,53,60,35,-45,100,59,1,29.89,29.81,21,7,30,0.00
2012-8-31,64,56,54,49,39,-44,79,60,1,29.96,29.88,15,4,24,0.01
2012-9-1,64,56,50,49,35,-45,79,55,1,30.02,29.96,16,4,21,0.00
2012-9-2,76,61,49,54,38,-44,100,54,1,30.00,29.85,11,2,14,0.00
2012-9-3,76,60,50,60,42,-44,100,66,1,29.99,29.86,12,3,18,0.00
2012-9-4,64,55,50,55,36,-46,98,57,1,30.02,29.93,13,4,20,0.00
2012-9-5,66,56,52,55,38,-45,95,59,1,30.00,29.91,13,2,19,0.00
2012-9-6,66,58,52,54,40,-45,100,61,1,30.01,29.92,15,4,25,0.00
2012-9-7,67,58,51,55,40,-46,99,61,1,30.05,29.97,12,2,17,0.00
2012-9-8,62,55,53,58,45,-44,100,76,1,30.05,29.95,17,4,24,0.02
2012-9-9,67,58,52,54,41,-45,84,63,1,29.98,29.88,21,5,22,0.00
2012-9-10,74,60,53,54,40,-45,92,56,1,29.94,29.81,13,4,20,0.00
2012-9-11,65,58,53,60,41,-44,100,64,1,29.97,29.87,16,6,26,0.04
2012-9-12,67,57,53,62,39,-45,100,59,1,30.05,29.96,14,3,18,0.00
2012-9-13,68,58,52,61,40,-45,100,59,1,30.07,29.97,13,2,17,0.00
2012-9-14,66,57,53,62,38,-45,99,60,1,30.08,29.98,11,2,19,0.00
2012-9-15,65,56,50,52,37,-46,82,58,1,30.08,29.96,13,3,16,0.00
2012-9-16,69,55,48,53,37,-47,100,60,1,30.04,29.94,10,3,20,0.00
2012-9-17,64,56,53,58,39,-44,100,62,1,30.04,29.97,13,4,20,0.00
2012-9-18,65,56,51,61,40,-45,100,65,1,30.08,29.98,18,3,23,0.00
2012-9-19,66,57,53,60,38,-44,100,59,1,30.07,30.00,21,4,23,0.03
2012-9-20,68,57,49,53,38,-46,78,58,1,30.05,29.93,13,3,22,0.00
2012-9-21,68,57,51,53,37,-46,86,57,1,30.01,29.87,15,4,20,0.00
2012-9-22,77,60,51,55,38,-45,81,54,1,29.94,29.82,13,2,17,0.00
2012-9-23,76,58,48,59,38,-48,100,57,1,29.96,29.87,16,2,19,0.00
2012-9-24,69,57,51,60,39,-44,100,60,1,29.96,29.86,16,3,23,0.00
2012-9-25,64,55,49,59,35,-45,93,56,1,29.94,29.86,14,2,20,0.00
2012-9-26,61,54,50,47,35,-45,78,57,1,29.93,29.85,14,4,19,0.00
2012-9-27,76,57,50,58,39,-46,100,58,1,29.94,29.82,11,2,19,0.00
2012-9-28,60,54,49,45,35,-45,71,56,1,29.97,29.90,12,3,20,0.00
2012-9-29,68,55,51,52,40,-44,81,64,1,30.03,29.92,11,1,16,0.00
2012-9-30,89,68,48,55,32,-45,71,40,1,30.04,29.84,9,1,15,0.00
2012-10-1,96,76,58,68,40,-40,76,38,1,29.96,29.77,13,0,13,0.00
2012-10-2,98,79,63,64,28,-36,64,26,1,29.86,29.67,7,1,13,0.00
2012-10-3,79,68,59,58,41,-41,78,46,1,29.87,29.75,20,2,29,0.01
2012-10-4,65,60,57,58,43,-41,89,64,1,30.10,30.03,15,5,19,0.00
2012-10-5,70,61,55,62,43,-42,90,60,1,30.11,30.02,14,3,18,0.00
2012-10-6,71,60,53,52,39,-45,78,55,1,30.05,29.93,15,3,19,0.00
2012-10-7,65,58,52,61,40,-45,99,61,1,30.00,29.91,17,4,22,0.00
2012-10-8,67,59,52,57,40,-45,80,58,1,30.01,29.96,12,3,18,0.00
2012-10-9,69,60,54,60,40,-45,85,58,1,30.01,29.91,11,2,17,0.00
2012-10-10,67,58,53,62,40,-44,100,60,1,29.96,29.87,18,4,26,0.05
2012-10-11,57,55,53,46,39,-44,71,60,1,29.97,29.90,12,2,17,0.05
2012-10-12,63,57,52,53,40,-44,77,61,1,30.18,29.95,10,2,13,0.03
2012-10-13,73,60,52,54,40,-45,76,56,1,30.22,30.09,9,2,20,0.00
2012-10-14,73,60,55,60,41,-44,100,58,1,30.16,30.01,13,2,19,0.01
2012-10-15,76,62,54,60,43,-42,80,57,1,30.06,29.91,10,1,17,0.00
2012-10-16,77,65,58,69,46,-41,96,60,1,29.96,29.84,17,2,24,0.00
2012-10-17,86,70,57,55,26,-41,70,32,1,29.90,29.73,7,0,13,0.00
2012-10-18,87,72,60,65,38,-37,100,38,1,29.98,29.83,19,4,23,0.00
2012-10-19,65,60,55,54,42,-40,70,58,1,30.02,29.92,14,3,20,0.00
2012-10-20,67,57,52,54,39,-44,100,61,1,29.94,29.81,20,3,27,0.00
2012-10-21,62,54,48,49,38,-45,80,63,1,29.93,29.86,16,4,24,0.03
2012-10-22,63,56,51,53,38,-44,74,59,1,29.93,29.77,17,4,21,0.74
2012-10-23,63,55,50,49,37,-44,80,57,1,30.03,29.93,12,2,17,0.18
2012-10-24,64,57,51,53,40,-45,79,60,1,30.16,30.00,11,2,15,0.24
2012-10-25,68,57,52,53,39,-45,80,58,1,30.19,30.11,9,1,12,0.06
2012-10-26,75,61,51,55,37,-45,100,53,1,30.17,30.01,9,1,14,0.00
2012-10-27,81,65,55,58,44,-39,75,55,1,30.05,29.88,9,1,15,0.00
2012-10-28,80,63,54,62,42,-42,98,55,1,30.01,29.87,11,2,17,0.00
2012-10-29,73,59,52,56,40,-44,98,57,1,30.07,29.96,9,1,16,0.00
2012-10-30,70,57,51,55,38,-44,72,57,1,30.06,29.95,12,1,19,0.01
2012-10-31,64,58,55,48,41,-43,71,59,1,29.99,29.94,15,1,15,0.19
2012-11-1,65,59,52,48,40,-42,71,56,1,30.04,29.96,14,2,16,0.29
2012-11-2,68,57,49,55,38,-46,95,58,1,30.05,29.97,10,1,13,0.00
2012-11-3,74,61,52,56,40,-45,72,55,1,30.09,29.99,6,1,12,0.00
2012-11-4,81,66,55,58,42,-44,99,52,1,30.13,30.01,6,0,9,0.00
2012-11-5,81,68,57,56,44,-41,76,50,1,30.08,29.93,8,1,11,0.00
2012-11-6,80,67,56,57,43,-40,76,51,1,30.03,29.91,7,1,9,0.00
2012-11-7,58,55,54,48,39,-44,76,60,1,30.04,29.93,17,4,23,0.00
2012-11-8,60,53,46,50,35,-47,72,58,1,29.96,29.91,15,3,24,0.11
2012-11-9,56,50,43,42,31,-52,75,57,1,30.00,29.91,12,2,20,0.07
2012-11-10,59,51,46,44,32,-49,75,56,1,30.21,29.99,10,2,17,0.00
2012-11-11,59,48,43,43,36,-48,81,65,1,30.30,30.20,3,0,7,0.00
2012-11-12,63,53,44,54,32,-48,100,53,1,30.31,30.17,6,0,9,0.00
2012-11-13,68,57,48,48,30,-47,76,45,1,30.21,30.02,7,1,10,0.00
2012-11-14,72,59,48,53,38,-44,100,54,1,30.09,29.94,9,1,12,0.00
2012-11-15,70,57,50,53,39,-44,79,57,1,30.00,29.89,16,1,17,0.00
2012-11-16,63,57,53,48,42,-44,70,60,1,29.99,29.86,8,0,14,0.45
2012-11-17,59,56,53,48,44,-43,72,64,1,29.99,29.82,10,2,15,0.73
2012-11-18,62,56,49,49,37,-45,75,57,1,30.12,29.99,10,2,12,0.00
2012-11-19,68,58,50,53,40,-46,80,58,1,30.15,30.08,13,2,15,0.00
2012-11-20,63,60,56,50,42,-42,71,58,1,30.11,29.98,15,3,17,0.63
2012-11-21,64,58,49,49,38,-42,70,56,1,30.17,30.00,11,3,15,0.54
2012-11-22,68,55,47,48,35,-48,75,56,1,30.19,30.09,7,0,9,0.00
2012-11-23,69,56,48,49,36,-48,74,55,1,30.19,30.07,8,1,10,0.00
2012-11-24,70,57,50,52,37,-44,88,55,1,30.14,29.98,6,1,10,0.00
2012-11-25,67,55,50,54,37,-45,89,59,1,30.03,29.90,9,0,10,0.00
2012-11-26,62,53,49,46,36,-47,78,59,1,30.05,29.97,10,2,15,0.01
2012-11-27,64,56,50,55,40,-45,97,61,1,30.07,29.97,8,1,12,0.00
2012-11-28,63,57,54,47,40,-44,69,58,1,30.02,29.81,17,4,29,0.27
2012-11-29,62,59,55,50,43,-42,69,59,1,30.01,29.85,23,4,34,0.09
2012-11-30,61,59,56,59,46,-42,100,66,1,29.98,29.80,19,6,35,1.41
2012-12-1,63,59,56,58,44,-42,100,64,1,29.99,29.87,15,3,21,0.82
2012-12-2,62,57,50,51,40,-44,75,58,1,30.08,29.76,29,5,42,1.16
2012-12-3,66,53,47,54,36,-47,100,59,1,30.15,30.06,6,0,9,0.00
2012-12-4,63,57,52,51,40,-44,75,59,1,30.16,30.08,7,1,13,0.04
2012-12-5,61,59,56,50,44,-41,79,61,1,30.10,30.03,15,1,16,1.05
2012-12-6,62,55,49,57,39,-45,100,62,1,30.10,30.03,8,1,13,0.00
2012-12-7,66,53,46,51,35,-48,99,59,1,30.11,30.00,6,0,7,0.00
2012-12-8,63,51,46,52,34,-49,100,60,1,30.08,29.98,7,1,10,0.00
2012-12-9,70,56,47,50,34,-48,100,52,1,30.13,30.00,6,0,9,0.00
2012-12-10,68,58,51,50,37,-44,85,55,1,30.15,30.05,7,1,10,0.00
2012-12-11,54,52,47,52,36,-47,100,62,1,30.06,29.89,12,2,18,0.03
2012-12-12,55,50,44,52,35,-47,100,64,1,29.94,29.86,13,2,16,0.09
2012-12-13,55,47,41,40,30,-50,81,58,1,29.96,29.87,10,1,13,0.00
2012-12-14,53,46,41,38,31,-48,78,61,1,30.03,29.87,3,0,7,0.00
2012-12-15,48,46,42,46,35,-51,100,68,1,30.07,30.00,11,2,15,0.15
2012-12-16,55,51,47,55,38,-47,100,66,1,30.07,30.00,12,2,16,0.03
2012-12-17,58,54,47,56,41,-46,100,70,1,30.03,29.97,16,4,22,0.22
2012-12-18,53,47,41,47,31,-48,100,61,1,30.18,30.01,10,2,23,0.00
2012-12-19,56,45,37,39,29,-53,84,63,1,30.26,30.17,6,1,9,0.00
2012-12-20,61,50,40,50,32,-53,91,60,1,30.20,29.97,13,3,19,0.00
2012-12-21,55,52,50,53,43,-45,100,74,1,29.98,29.87,12,4,23,0.19
2012-12-22,57,52,48,54,38,-47,100,67,1,30.05,29.85,17,4,23,0.95
2012-12-23,56,52,49,55,42,-45,100,71,1,30.05,29.86,25,4,28,1.17
2012-12-24,58,50,44,44,34,-50,81,62,1,30.15,30.00,7,1,13,0.00
2012-12-25,52,47,43,49,36,-50,100,69,1,30.14,29.81,10,1,16,1.08
2012-12-26,54,50,47,45,34,-48,82,64,1,30.08,29.88,15,4,24,0.24
2012-12-27,57,49,44,42,33,-51,82,62,1,30.14,30.06,7,1,16,0.00
2012-12-28,52,46,41,42,33,-51,85,67,1,30.16,30.03,6,0,7,0.16
2012-12-29,56,47,42,43,33,-50,84,66,1,30.08,29.98,7,1,15,0.13
2012-12-30,56,47,40,42,32,-52,83,63,1,30.15,30.02,7,1,10,0.00
2012-12-31,57,47,39,42,31,-52,83,64,1,30.24,30.15,7,0,9,0.00
2013-1-1,55,46,40,40,30,-52,83,63,1,30.22,30.15,12,1,15,0.00